(177296) = 2003 XK19

Discovered at Socorro on 2003-12-15 by LINEAR.

Orbit

Orbit type: Phocaea

Note: WebGL enabled browser required.

epoch2024-03-31.0
epoch JD2460400.5
perihelion date2022-07-13.30317
perihelion JD2459773.80318
argument of perihelion (°)1.10856
ascending node (°)17.11727
inclination (°)12.19515
eccentricity0.2329880
perihelion distance (AU)1.8778207
Tisserand w.r.t. Jupiter3.4
ΔV w.r.t. Earth (km/sec)9.3
semimajor axis (AU)2.4482285
mean anomaly (°)161.24403
mean daily motion (°/day)0.25729190
aphelion distance (AU)3.019
period (years)3.83
P-vector [x]0.94995969
P-vector [y]0.28494600
P-vector [z]0.12799363
Q-vector [x]-0.30612240
Q-vector [y]0.76765823
Q-vector [z]0.56301858
absolute magnitude16.3
phase slope0.15
uncertainty0
referenceE2024-GI3
observations used662
oppositions17
arc length (days)8929
first opposition used1999
last opposition used2024
residual rms (arc-secs)0.66
perturbers coarse indicatorM-v
perturbers precise indicator003Ek
first observation date used1999-11-01.0
last observation date used2024-04-12.0
computer nameMPCLINUX
JD of orbit computation2456966.807502
perihelion JD uncertainty (days)3.0965E-05
argument of perihelion uncertainty (°)1.9559E-05
ascending node uncertainty (°)1.7307E-05
inclination uncertainty (°)5.1295E-06
eccentricity uncertainty 5.1573E-08
perihelion distance uncertainty (AU)1.3174E-07
Minimum Orbit Intersection Distances (in AU)
for orbit epoch: 2460400.5, reference: E2024-GI3
Mercury1.53341
Venus1.15399
Earth0.8799
Mars0.46192
Jupiter2.43617
Saturn6.52138
Uranus15.4878
Neptune27.6114

Observations

659 total observations over interval: 1999 11 01.33782 – 2024 03 05.430459
These data are available for download (format description).

Date (UT) J2000 RA J2000 Dec Magn Location Ref
1999 11 01.33782 05 21 23.75 +37 59 42.8 19.0   704 – Lincoln Laboratory ETS, New Mexico MPS 96392
1999 11 01.35406 05 21 23.38 +37 59 54.0 19.5   704 – Lincoln Laboratory ETS, New Mexico MPS 96392
1999 11 01.40498 05 21 22.22 +38 00 25.3 19.4   704 – Lincoln Laboratory ETS, New Mexico MPS 96392
1999 12 13.20943 04 36 26.72 +42 02 12.2 19.2   704 – Lincoln Laboratory ETS, New Mexico MPS 96392
1999 12 13.22419 04 36 25.53 +42 02 12.2 18.7   704 – Lincoln Laboratory ETS, New Mexico MPS 96392
1999 12 13.23889 04 36 24.35 +42 02 11.0 18.7   704 – Lincoln Laboratory ETS, New Mexico MPS 96392
1999 12 13.26833 04 36 21.99 +42 02 10.6 19.2   704 – Lincoln Laboratory ETS, New Mexico MPS 96392
1999 12 30.21183 04 19 14.29 +41 12 25.0 19.3   704 – Lincoln Laboratory ETS, New Mexico MPS 96392
1999 12 30.22645 04 19 13.79 +41 12 18.7 19.4   704 – Lincoln Laboratory ETS, New Mexico MPS 96392
1999 12 30.24109 04 19 13.10 +41 12 15.3 19.2   704 – Lincoln Laboratory ETS, New Mexico MPS 96392
1999 12 30.25561 04 19 12.59 +41 12 12.3 19.4   704 – Lincoln Laboratory ETS, New Mexico MPS 96392
2003 11 24.35853 07 51 52.36 +39 13 56.1 18.6 V 703 – Catalina Sky Survey MPS 96392
2003 11 24.36986 07 51 52.21 +39 14 03.0 19.7 V 703 – Catalina Sky Survey MPS 96392
2003 11 24.38124 07 51 52.30 +39 14 07.0 19.5 V 703 – Catalina Sky Survey MPS 96392
2003 11 24.39255 07 51 52.06 +39 14 13.6 19.0 V 703 – Catalina Sky Survey MPS 96392
2003 12 15.32445 07 41 12.92 +41 58 52.1 19.8   704 – Lincoln Laboratory ETS, New Mexico MPS 94853
2003 12 15.33753 07 41 12.08 +41 58 58.1 19.5   704 – Lincoln Laboratory ETS, New Mexico MPS 94853
2003 12 15.35050 07 41 11.35 +41 59 03.8 20.3   704 – Lincoln Laboratory ETS, New Mexico MPS 94853
2003 12 15.36348 07 41 10.56 +41 59 08.8 19.6   704 – Lincoln Laboratory ETS, New Mexico MPS 94853
2003 12 17.31433 07 39 12.72 +42 12 27.2 19.6   644 – Palomar Mountain/NEAT MPS 96392
2003 12 17.31664 07 39 12.63 +42 12 28.2 19.0   644 – Palomar Mountain/NEAT MPS 96392
2003 12 17.39175 07 39 07.61 +42 12 59.1 19.4   644 – Palomar Mountain/NEAT MPS 96392
2003 12 17.39704 07 39 07.35 +42 13 01.2 19.3   644 – Palomar Mountain/NEAT MPS 96392
2003 12 17.44043 07 39 04.42 +42 13 16.9 19.0 R 699 – Lowell Observatory-LONEOS MPS 94853
2003 12 17.45394 07 39 03.51 +42 13 23.3   699 – Lowell Observatory-LONEOS MPS 94853
2003 12 17.45745 07 39 03.27 +42 13 24.9 19.6   644 – Palomar Mountain/NEAT MPS 96392
2003 12 17.45978 07 39 03.15 +42 13 25.0 19.5   644 – Palomar Mountain/NEAT MPS 96392
2003 12 17.46739 07 39 02.57 +42 13 27.4   699 – Lowell Observatory-LONEOS MPS 94853
2003 12 17.48091 07 39 01.75 +42 13 33.3   699 – Lowell Observatory-LONEOS MPS 94853
2003 12 30.26091 07 23 08.72 +43 19 02.2 19.5   704 – Lincoln Laboratory ETS, New Mexico MPS 96392
2003 12 30.27300 07 23 07.67 +43 19 04.4 19.3   704 – Lincoln Laboratory ETS, New Mexico MPS 96392
2003 12 30.28510 07 23 06.63 +43 19 07.4 19.5   704 – Lincoln Laboratory ETS, New Mexico MPS 96392
2003 12 30.29728 07 23 05.62 +43 19 09.5 19.4   704 – Lincoln Laboratory ETS, New Mexico MPS 96392
2003 12 30.30939 07 23 04.53 +43 19 11.4 19.4   704 – Lincoln Laboratory ETS, New Mexico MPS 96392
2004 01 16.22786 06 59 40.54 +43 29 58.9 19.3   644 – Palomar Mountain/NEAT MPS 97034
2004 01 16.24801 06 59 38.93 +43 29 56.4 18.9   644 – Palomar Mountain/NEAT MPS 97034
2004 01 16.27238 06 59 36.99 +43 29 53.5 18.9   644 – Palomar Mountain/NEAT MPS 97034
2005 03 12.43196 13 23 42.36 -07 14 09.7 21.0 V 691 – Steward Observatory, Kitt Peak-Spacewatch MPS 129109
2005 03 12.45957 13 23 41.12 -07 14 06.9 20.8 V 691 – Steward Observatory, Kitt Peak-Spacewatch MPS 129109
2005 03 12.49576 13 23 39.49 -07 14 04.1 21.1 V 691 – Steward Observatory, Kitt Peak-Spacewatch MPS 129109
2005 04 09.21610 12 58 18.79 -06 08 35.3 19.5 R G96 – Mt. Lemmon Survey MPS 131693
2005 04 09.22233 12 58 18.40 -06 08 34.1 19.9 R G96 – Mt. Lemmon Survey MPS 131693
2005 04 09.22854 12 58 18.03 -06 08 33.1 20.1 R G96 – Mt. Lemmon Survey MPS 131693
2005 04 09.23477 12 58 17.67 -06 08 32.2 19.5 R G96 – Mt. Lemmon Survey MPS 131693
2005 05 08.25038 12 33 55.06 -05 07 01.9 20.9 R G96 – Mt. Lemmon Survey MPS 133989
2005 05 08.25974 12 33 54.80 -05 07 01.5 20.0 R G96 – Mt. Lemmon Survey MPS 133989
2005 05 08.26909 12 33 54.39 -05 07 00.2 20.8 R G96 – Mt. Lemmon Survey MPS 133989
2005 05 08.27843 12 33 54.02 -05 07 00.6 20.9 R G96 – Mt. Lemmon Survey MPS 133989
2006 06 27.64404 19 45 37.04 -42 24 33.5 19.1 V E12 – Siding Spring Survey MPS 174485
2006 06 27.65289 19 45 36.39 -42 24 36.7 19.2 V E12 – Siding Spring Survey MPS 174485
2006 06 27.66168 19 45 35.92 -42 24 40.4 19.1 V E12 – Siding Spring Survey MPS 174485
2006 06 27.67042 19 45 35.35 -42 24 43.7 19.3 V E12 – Siding Spring Survey MPS 174485
2008 01 13.27814 09 15 16.31 +35 52 58.4 19.9   704 – Lincoln Laboratory ETS, New Mexico MPS 234219
2008 01 13.29117 09 15 15.35 +35 53 01.0 19.8   704 – Lincoln Laboratory ETS, New Mexico MPS 234219
2008 01 13.30420 09 15 14.49 +35 53 06.2 19.7   704 – Lincoln Laboratory ETS, New Mexico MPS 234219
2008 01 13.31747 09 15 13.57 +35 53 10.0 20.4   704 – Lincoln Laboratory ETS, New Mexico MPS 234219
2008 01 13.33047 09 15 12.66 +35 53 14.1 19.7   704 – Lincoln Laboratory ETS, New Mexico MPS 234219
2008 01 15.33137 09 12 57.91 +36 03 44.0 19.3   704 – Lincoln Laboratory ETS, New Mexico MPS 234219
2008 01 15.34462 09 12 56.93 +36 03 46.5 19.7   704 – Lincoln Laboratory ETS, New Mexico MPS 234219
2008 01 15.37111 09 12 55.10 +36 03 56.2 19.7   704 – Lincoln Laboratory ETS, New Mexico MPS 234219
2008 01 15.38434 09 12 54.10 +36 04 00.5 19.6   704 – Lincoln Laboratory ETS, New Mexico MPS 234219
2008 02 08.27179 08 42 56.03 +36 59 25.6 19.7   704 – Lincoln Laboratory ETS, New Mexico MPS 237486
2008 02 08.28388 08 42 55.05 +36 59 24.5 19.8   704 – Lincoln Laboratory ETS, New Mexico MPS 237486
2008 02 08.29596 08 42 54.18 +36 59 24.2 20.0   704 – Lincoln Laboratory ETS, New Mexico MPS 237486
2008 02 08.30805 08 42 53.34 +36 59 24.0 19.9   704 – Lincoln Laboratory ETS, New Mexico MPS 237486
2008 02 08.32020 08 42 52.37 +36 59 22.6 20.2   704 – Lincoln Laboratory ETS, New Mexico MPS 237486
2009 03 17.38126 14 08 31.22 -14 54 23.2 21.3 V 691 – Steward Observatory, Kitt Peak-Spacewatch MPS 281135
2009 03 17.39895 14 08 30.56 -14 54 23.9 20.9 V 691 – Steward Observatory, Kitt Peak-Spacewatch MPS 281135
2009 03 17.41661 14 08 29.89 -14 54 24.6 21.2 V 691 – Steward Observatory, Kitt Peak-Spacewatch MPS 281135
2009 03 26.32392 14 02 18.25 -14 54 18.6 21.1 V 691 – Steward Observatory, Kitt Peak-Spacewatch MPS 282387
2009 03 26.34160 14 02 17.42 -14 54 17.8 20.5 V 691 – Steward Observatory, Kitt Peak-Spacewatch MPS 282387
2009 03 26.35927 14 02 16.57 -14 54 17.5 20.8 V 691 – Steward Observatory, Kitt Peak-Spacewatch MPS 282387
2009 03 31.32031 13 58 08.01 -14 50 35.0 20.5 V 691 – Steward Observatory, Kitt Peak-Spacewatch MPS 283524
2009 03 31.33803 13 58 07.05 -14 50 34.3 21.1 V 691 – Steward Observatory, Kitt Peak-Spacewatch MPS 283524
2009 03 31.35574 13 58 06.08 -14 50 33.0 20.5 V 691 – Steward Observatory, Kitt Peak-Spacewatch MPS 283524
2009 04 20.28628 13 38 32.28 -14 14 00.6 20.2 V G96 – Mt. Lemmon Survey MPS 285554
2009 04 20.29318 13 38 31.84 -14 13 59.6 20.4 V G96 – Mt. Lemmon Survey MPS 285554
2009 04 20.30008 13 38 31.41 -14 13 58.5 20.2 V G96 – Mt. Lemmon Survey MPS 285554
2009 04 20.30696 13 38 30.98 -14 13 57.5 20.2 V G96 – Mt. Lemmon Survey MPS 285554
2009 04 27.25701 13 31 29.85 -13 56 02.1 20.3 V G96 – Mt. Lemmon Survey MPS 286364
2009 04 27.26003 13 31 29.64 -13 56 01.2 20.4 V G96 – Mt. Lemmon Survey MPS 286364
2009 04 27.26315 13 31 29.46 -13 56 00.9 20.4 V G96 – Mt. Lemmon Survey MPS 286364
2009 04 27.26627 13 31 29.28 -13 56 00.0 20.4 V G96 – Mt. Lemmon Survey MPS 286364
2010 04 30.559990 21 11 10.82 -30 15 25.9   C51 – WISE MPS 326145
2010 04 30.560117 21 11 10.84 -30 15 25.5   C51 – WISE MPS 326145
2010 04 30.692294 21 11 22.75 -30 15 15.8   C51 – WISE MPS 326145
2010 04 30.692421 21 11 22.75 -30 15 15.6   C51 – WISE MPS 326145
2010 04 30.824726 21 11 34.68 -30 15 05.3   C51 – WISE MPS 326145
2010 04 30.890815 21 11 40.65 -30 14 59.1   C51 – WISE MPS 326145
